RH
70 78 93 86 70 47 44 45 34 28 36 27 20 16 16 19 22 22 25 29 35 39 46 46 45 44 44 47 43 18 13 12 9 8 9 8 8 8 8 8 8 8 10 10
64 70 76 77 67 66 51 45 42 32 20 24 19 16 16 18 23 21 25 32 37 40 43 47 45 35 36 40 27 18 15 12 11 11 11 10 9 10 10 10 11 12 13 14
22 27 55 64 59 56 53 52 53 42 33 23 21 21 20 20 20 22 28 37 40 46 54 49 37 30 29 29 30 23 19 16 14 11 10 11 11 11 14 16 19 20 18 18
18 18 17 19 30 48 52 50 43 40 40 32 24 19 19 21 26 26 31 36 46 58 63 59 44 36 36 35 33 27 22 18 14 12 12 12 12 15 19 26 30 30 25 23
38 41 40 35 26 22 20 22 27 29 30 33 31 25 22 20 20 21 22 27 35 46 61 68 65 56 50 45 37 29 22 19 17 17 15 12 12 14 16 22 31 34 30 26
63 67 82 91 90 78 53 39 30 27 24 32 37 38 26 26 22 27 33 36 34 34 38 43 48 52 51 47 43 37 30 24 20 17 15 16 18 20 23 30 39 37 31 29
93 82 83 88 86 82 89 90 69 66 42 33 36 31 29 32 32 40 42 45 47 52 57 53 43 38 38 39 37 33 33 35 32 27 30 33 32 29 33 42 42 43 42 39
95 98 99 99 96 92 89 92 95 89 100 98 61 41 33 29 29 29 30 31 32 37 50 65 69 70 67 67 68 68 65 60 56 51 45 40 39 41 40 50 49 54 48 50
90 97 100 100 99 98 100 91 94 92 84 78 67 50 56 53 50 50 50 47 44 43 44 47 52 57 60 65 67 66 65 63 59 57 54 58 57 58 58 58 47 45 48 46
96 90 100 100 99 99 98 100 99 97 100 100 58 56 51 49 48 54 57 61 60 58 58 61 62 62 68 74 78 82 81 79 79 81 87 93 90 81 74 75 56 54 49 48
86 92 91 97 100 93 95 96 100 100 98 99 81 61 66 62 56 66 75 78 72 66 63 60 69 82 85 82 84 91 98 95 91 85 78 80 83 83 82 80 73 68 56 54
85 87 85 92 100 96 83 96 83 95 90 99 98 40 61 59 58 66 70 76 78 69 70 82 92 84 71 66 66 70 76 77 71 67 73 75 76 83 74 68 72 70 62 61
99 93 86 81 94 100 99 87 62 63 92 79 86 48 65 76 69 82 94 94 88 79 83 86 84 78 78 78 83 88 85 82 77 78 82 84 85 90 91 72 76 72 64 68
94 84 77 71 73 90 97 99 100 100 100 94 100 72 73 89 93 100 99 88 86 79 83 77 79 75 68 55 62 68 81 81 80 66 79 86 86 87 87 84 72 67 66 68
95 80 74 63 71 62 60 54 62 95 92 82 83 100 60 82 87 88 79 77 76 74 73 67 72 74 84 82 79 81 78 79 89 92 90 96 96 92 86 79 76 76 70 68
66 78 77 66 62 52 55 54 43 37 34 54 31 28 61 54 44 33 37 43 46 54 67 75 89 100 100 100 97 80 76 81 91 96 100 98 92 93 82 77 76 72 69 64
35 47 51 61 48 46 43 40 19 16 18 26 27 13 40 77 64 58 65 63 70 76 98 84 62 53 74 100 90 80 80 85 91 96 97 99 99 94 72 64 67 63 56 51
23 22 23 32 28 28 31 26 24 25 21 19 18 15 33 66 60 45 68 78 82 87 68 53 42 60 90 97 95 97 99 100 100 100 100 98 92 80 71 66 58 54 51 46
29 26 25 53 21 21 21 21 25 28 22 27 23 30 68 41 96 81 86 92 78 57 49 51 57 68 98 100 100 100 100 99 98 92 87 85 82 70 51 31 22 19 13 13
56 52 69 83 72 46 34 38 34 37 30 41 38 31 96 94 69 74 63 50 58 57 53 63 78 96 100 100 97 92 86 81 78 76 64 49 20 10 7 7 9 10 16 18
97 94 94 83 87 72 39 40 31 40 34 53 37 43 74 83 53 58 55 48 57 57 54 57 64 74 85 98 98 89 85 72 42 12 9 8 9 11 11 11 13 31 34 30
52 88 92 80 65 61 44 38 41 37 30 34 32 74 85 77 74 63 65 77 63 54 72 73 83 98 100 94 89 67 25 12 10 11 12 13 14 14 15 14 16 25 36 37
56 62 90 99 100 93 61 53 56 38 31 46 46 91 89 84 77 71 80 73 74 74 80 96 95 88 91 75 25 11 11 12 14 15 16 15 16 17 19 20 20 18 26 38
94 94 92 93 74 79 98 84 61 74 100 98 86 100 96 80 75 70 77 76 83 93 94 82 90 83 21 11 13 13 14 16 17 16 15 15 16 18 20 24 25 24 22 20
100 98 79 80 79 82 78 73 58 74 99 99 80 73 69 66 66 71 77 96 91 95 94 78 18 11 14 14 15 17 18 18 18 17 16 16 17 18 17 18 22 25 23 22
90 100 99 100 97 82 78 64 100 100 97 80 73 69 68 76 92 94 94 98 92 99 56 11 13 14 15 18 19 18 16 16 15 15 15 15 15 14 14 17 20 24 27 28
Wind_Speed
33 31 26 33 32 25 26 27 25 23 29 30 32 34 31 30 33 35 37 37 33 29 26 26 26 27 29 32 33 33 34 36 36 36 37 38 39 41 44 45 46 46 45 45
36 34 31 35 31 31 30 31 29 27 30 32 31 33 33 31 31 34 36 36 34 31 30 31 30 30 31 33 34 34 36 39 40 40 40 42 42 43 45 46 47 48 48 48
39 38 37 37 36 35 35 35 33 34 35 34 34 33 34 34 35 34 35 35 34 33 33 32 31 32 33 33 36 37 40 43 45 45 44 45 46 46 47 48 48 47 50 51
44 42 39 39 41 39 40 41 39 39 37 36 38 39 37 35 35 34 33 33 35 36 35 34 34 33 34 36 38 41 45 47 48 48 48 49 50 50 50 49 51 51 51 52
48 46 44 43 41 45 43 44 43 44 43 43 42 43 42 43 35 33 35 37 37 36 35 37 38 39 40 40 42 44 46 49 51 51 52 53 54 54 54 54 55 54 53 54
50 49 50 50 47 47 47 47 47 46 48 50 47 48 43 45 43 39 39 39 40 40 40 40 42 44 44 46 47 48 50 51 53 55 55 56 57 58 59 56 55 53 52 54
51 49 45 46 49 51 49 49 51 54 55 53 52 53 47 50 51 50 47 46 44 44 43 43 44 45 46 47 50 51 53 55 57 59 59 60 60 60 59 56 53 53 52 54
54 54 53 50 47 45 48 51 54 55 42 42 58 56 54 54 54 55 55 50 49 48 47 47 47 48 49 51 53 55 57 58 60 61 61 61 61 60 60 58 55 56 54 55
49 50 52 51 50 51 50 49 43 46 49 53 56 55 55 57 58 58 58 58 55 51 48 48 48 48 49 50 52 53 55 57 58 60 61 61 61 62 64 61 59 59 58 57
47 46 45 45 45 46 50 50 49 48 46 43 53 52 54 55 55 53 52 50 50 50 48 47 48 49 50 50 52 54 56 58 60 62 64 67 68 67 66 63 60 60 61 60
46 48 46 47 45 43 44 46 48 46 43 43 51 54 52 54 57 54 52 52 50 51 52 53 51 49 50 51 53 55 57 59 60 63 64 66 66 65 64 64 66 68 64 62
44 47 49 44 51 48 45 45 45 48 48 52 48 52 52 56 57 57 55 53 52 52 53 50 52 55 58 59 61 61 62 64 66 68 70 71 68 68 69 71 69 68 64 63
45 45 41 32 35 42 44 39 45 43 46 46 47 48 49 43 45 50 50 49 49 50 53 54 55 56 58 58 59 58 59 61 64 67 68 70 72 69 65 70 71 68 67 65
42 43 45 45 41 40 38 37 38 35 40 41 39 38 40 38 42 41 40 43 48 50 50 51 49 48 50 49 49 51 54 58 58 60 63 63 63 65 66 64 63 61 61 60
39 40 37 39 39 43 45 42 44 48 47 50 44 48 40 38 49 50 49 51 55 53 53 50 48 47 46 48 46 48 55 59 61 61 61 59 61 57 56 56 57 56 57 59
39 36 36 38 37 41 40 39 43 49 46 48 50 51 45 44 49 52 53 54 53 49 44 40 40 41 45 48 51 54 50 53 56 56 55 53 54 54 54 55 56 56 57 58
41 39 39 39 39 41 42 35 38 41 39 39 42 38 37 39 43 42 44 44 40 41 41 38 38 42 45 49 50 50 52 53 55 55 57 51 48 50 54 56 57 58 58 59
41 39 41 40 42 47 39 36 35 36 33 33 34 32 41 44 41 45 41 39 39 39 38 41 43 43 45 49 52 51 53 56 57 56 54 52 53 55 58 58 59 61 62 63
38 37 38 39 42 44 42 35 37 39 35 36 35 34 35 37 37 38 40 37 37 38 39 41 43 44 47 50 50 51 52 53 53 54 54 54 55 56 58 59 59 61 62 63
39 39 39 38 41 45 36 38 35 37 35 34 32 35 30 22 24 26 28 29 32 35 35 37 39 42 46 46 47 47 48 49 49 50 50 52 53 54 54 55 54 54 52 52
34 35 37 38 41 40 30 32 34 35 30 31 32 33 37 27 27 26 26 28 29 31 33 34 37 39 41 42 42 44 44 42 42 43 45 48 49 48 48 48 48 46 44 44
30 30 31 33 35 37 29 31 34 31 31 32 31 29 29 31 30 28 29 29 31 33 33 35 37 36 37 40 38 35 36 36 37 39 39 41 41 41 40 40 41 42 42 41
30 29 30 29 21 19 21 24 23 23 24 25 26 32 25 27 26 29 31 33 30 31 32 29 29 32 32 30 29 29 31 30 31 32 34 35 37 38 39 39 38 37 37 37
27 26 26 26 26 26 20 21 25 23 20 26 28 22 22 26 28 28 27 28 28 25 22 25 30 24 23 22 24 25 24 25 27 28 31 34 37 38 39 40 40 39 36 35
22 24 22 25 24 24 23 23 23 23 28 18 19 18 18 21 22 23 24 23 18 20 24 24 20 17 19 19 17 17 20 22 25 28 31 33 36 38 40 40 40 39 35 33
23 20 22 22 21 22 24 23 23 20 23 22 20 20 20 21 19 19 17 17 19 22 19 14 15 16 11 10 12 14 18 22 24 27 30 33 35 35 38 41 42 41 39 36
Wind_Direction
258 257 258 259 256 265 268 271 269 260 257 253 255 254 258 252 256 261 265 267 267 261 264 262 260 262 263 264 268 273 278 281 283 281 281 283 285 285 285 286 289 291 293 294
255 257 253 253 258 261 259 263 269 265 260 258 256 258 261 261 258 258 262 264 266 267 268 268 264 259 257 262 264 269 274 276 279 280 280 282 283 285 286 287 288 290 291 290
254 256 252 256 256 256 259 265 266 263 265 265 261 260 263 262 261 262 265 267 270 274 274 270 262 259 261 263 264 268 272 275 278 280 283 285 286 287 286 287 289 289 289 288
256 256 257 255 255 257 258 258 265 268 267 265 262 262 259 258 264 268 273 273 269 268 269 266 263 264 265 268 272 273 274 274 276 279 282 284 285 287 288 288 290 290 289 287
255 255 255 257 257 256 258 261 259 263 266 265 263 263 263 262 262 269 268 269 270 271 269 268 266 267 270 272 273 274 274 275 276 280 281 283 285 285 286 288 288 289 286 284
254 256 257 257 257 257 257 260 262 261 262 257 260 258 252 264 260 263 267 271 271 272 272 271 270 271 273 276 277 278 278 280 280 281 283 283 283 284 286 287 288 287 285 286
254 250 252 256 256 257 257 255 258 257 256 256 260 258 254 257 259 267 266 269 272 273 273 272 273 274 276 277 277 278 280 282 283 284 285 284 284 285 287 288 286 285 286 287
256 256 252 251 253 256 253 254 255 260 261 262 258 257 259 258 262 266 271 272 271 272 272 273 273 274 275 276 277 278 281 281 281 282 283 283 283 285 286 285 283 284 286 284
260 256 253 251 252 254 254 254 255 255 254 257 260 262 261 261 263 266 269 272 272 271 271 271 272 274 276 276 277 278 278 278 278 279 280 282 283 284 284 283 283 285 286 285
257 254 250 248 248 251 255 254 251 249 251 255 260 261 264 267 263 266 267 269 271 274 275 276 277 277 276 275 274 274 275 276 278 281 283 284 284 285 285 282 284 287 288 286
254 253 252 249 249 249 251 254 257 260 262 261 258 256 261 263 266 265 268 273 275 273 274 275 275 272 271 273 275 276 276 278 280 282 284 284 285 284 284 282 285 286 286 284
253 256 257 254 247 249 250 255 255 257 255 254 257 257 262 263 266 273 273 274 273 272 271 269 269 273 276 276 277 278 280 282 284 286 286 285 283 282 284 285 284 284 286 283
251 252 252 246 245 245 246 248 252 253 257 256 262 263 266 266 262 265 270 270 273 271 272 274 277 277 277 279 279 280 283 284 284 285 285 285 284 283 282 285 285 283 282 282
254 251 253 251 244 245 249 242 242 237 241 251 250 248 252 266 259 264 272 270 270 271 273 276 278 281 288 292 290 288 286 285 286 288 287 287 286 284 284 282 282 283 283 282
253 255 257 255 252 245 246 246 246 247 249 253 251 255 259 260 268 267 271 273 271 275 277 281 282 283 287 288 287 289 286 283 283 283 284 285 285 284 283 285 286 285 285 285
252 258 259 261 259 256 252 252 251 251 255 261 261 256 259 267 271 271 274 273 277 279 280 278 277 280 277 286 289 296 295 296 289 288 288 287 288 290 289 290 289 290 288 288
252 254 258 260 259 259 260 265 254 255 256 262 264 268 262 265 266 270 269 271 273 275 271 280 283 283 283 278 286 292 293 292 290 293 290 288 293 292 292 293 292 291 291 291
253 253 253 257 254 256 265 260 259 261 264 266 270 275 269 268 272 269 264 266 266 268 275 280 283 281 281 280 281 284 287 286 288 288 288 292 293 293 292 290 292 291 290 288
253 251 252 252 252 259 260 265 263 262 262 264 270 264 269 268 265 263 263 263 266 273 274 277 278 279 278 278 280 282 285 288 293 294 295 297 296 295 294 294 293 292 293 292
254 254 251 252 255 258 264 258 260 259 264 260 265 262 265 263 257 255 258 266 275 278 279 282 284 282 281 284 287 291 295 296 296 298 300 299 298 297 297 296 297 296 298 300
247 249 250 251 256 257 258 254 254 252 262 262 261 262 257 263 260 260 264 269 273 276 281 285 284 283 284 285 289 293 295 297 300 302 303 303 304 305 303 300 296 297 299 302
246 243 249 254 258 261 253 249 249 251 254 258 258 259 251 256 256 261 268 276 281 281 284 286 284 286 289 294 297 299 301 304 307 309 310 312 313 313 314 313 307 301 299 301
244 237 237 244 246 266 245 241 237 242 250 255 254 252 242 253 260 266 272 274 280 288 287 285 289 292 293 295 299 302 307 312 317 320 320 320 320 322 325 321 317 310 302 300
226 227 234 242 240 243 246 238 233 225 239 234 246 258 249 257 261 263 271 282 286 281 282 290 294 291 296 300 305 310 316 323 326 327 331 333 334 332 331 329 326 318 309 302
220 229 231 235 234 232 238 238 227 231 243 238 252 258 256 262 271 276 279 277 272 288 289 291 290 296 299 305 314 326 329 331 337 340 338 336 336 335 334 332 330 330 321 309
227 241 246 229 230 233 233 223 245 223 226 248 252 263 272 270 268 271 269 267 280 279 281 288 292 295 304 321 331 337 350 354 352 348 345 343 343 343 340 337 334 331 329 325